ATLAS CENTAUR 2 1 00694U 63047A 26094.27757734 .00004404 00000+0 52669-3 0 9994 2 00694 30.3577 52.6318 0547104 305.8048 49.2885 14.12187646135241 THOR AGENA D R/B 1 00733U 64002A 26093.98938415 .00000323 00000+0 13237-3 0 9998 2 00733 99.1208 108.7051 0032886 183.1070 176.9913 14.34034464241920 SL-3 R/B 1 00877U 64053B 26093.80708083 .00000478 00000+0 11648-3 0 9995 2 00877 65.0757 257.5944 0080598 284.3220 74.8941 14.61387341270461 SL-8 R/B 1 02802U 67045B 26094.04120982 .00000479 00000+0 14003-3 0 9991 2 02802 74.0102 300.7437 0065021 301.4522 58.0290 14.45643437 92683 SL-8 R/B 1 03230U 68040B 26094.19714229 .00006544 00000+0 48035-3 0 9993 2 03230 74.0293 261.5621 0023307 74.8852 285.4913 15.03447319 93840 OAO 2 1 03597U 68110A 26094.17038277 .00000377 00000+0 10671-3 0 9990 2 03597 34.9922 122.9532 0005198 37.2701 322.8350 14.47323256 22792 ISIS 1 1 03669U 69009A 26094.20774149 .00000200 00000+0 13086-3 0 9995 2 03669 88.4493 152.5223 1707782 37.6851 333.2284 11.30421107351413 SERT 2 1 04327U 70009A 26094.27283824 .00000048 00000+0 12205-3 0 9993 2 04327 99.2794 35.9712 0005748 97.4956 73.3844 13.58732608783368 SL-3 R/B 1 05118U 71028B 26094.27646661 .00065207 00000+0 69486-3 0 9997 2 05118 81.2385 20.3773 0015400 181.8011 178.3191 15.63573503992666 ASTEX 1 1 05560U 71089A 26094.20430132 .00000759 00000+0 19285-3 0 9995 2 05560 92.7082 160.0049 0015576 7.2858 352.8572 14.50797807866000 SL-8 R/B 1 05730U 71119B 26094.18758674 .00011547 00000+0 60279-3 0 9995 2 05730 73.8840 128.0418 0545969 89.2686 277.0962 14.38348203659153 OAO 3 (COPERNICUS) 1 06153U 72065A 26094.24195773 .00000507 00000+0 10841-3 0 9992 2 06153 35.0046 151.7292 0006596 4.5077 45.2142 14.60019682849939 ATLAS CENTAUR R/B 1 06155U 72065B 26094.23288894 .00001930 00000+0 26509-3 0 9999 2 06155 35.0006 156.0503 0033951 226.0236 133.7663 14.77765636845047 SL-8 R/B 1 08459U 75112B 26094.10075854 .00000380 00000+0 13364-3 0 9993 2 08459 74.0622 332.1708 0014695 55.1398 305.1135 14.38219251635524 SL-3 R/B 1 10114U 77057B 26094.22301310 .00021303 00000+0 43361-3 0 9994 2 10114 97.5803 267.2870 0007216 181.5275 178.5953 15.46271076672279 SEASAT 1 1 10967U 78064A 26094.15882226 .00000556 00000+0 19373-3 0 9994 2 10967 108.0068 178.9384 0002724 272.8719 87.2115 14.46183766510195 SL-14 R/B 1 11267U 79011B 26094.20089177 .00001070 00000+0 10307-3 0 9991 2 11267 82.5219 72.3555 0015355 337.9018 22.1537 14.91945347532583 SL-8 R/B 1 11574U 79089B 26094.26963618 .00000518 00000+0 16454-3 0 9999 2 11574 74.0702 43.6889 0016534 212.8113 147.2018 14.42369247439792 SL-14 R/B 1 11672U 80005B 26094.23072870 .00000885 00000+0 86874-4 0 9997 2 11672 82.5107 283.0013 0017230 79.4284 280.8875 14.90962304480295 SL-8 R/B 1 12139U 81003B 26093.95882298 .00033850 00000+0 84192-3 0 9994 2 12139 82.9334 266.6348 0259872 90.8612 272.2403 15.12164288318494 SL-3 R/B 1 12465U 81046B 26094.21677305 .00019486 00000+0 44338-3 0 9991 2 12465 81.2289 259.0699 0018068 291.3975 68.5340 15.42667571442368 SL-3 R/B 1 12904U 81103B 26094.28865500 .00008507 00000+0 37394-3 0 9992 2 12904 81.1611 183.4025 0013076 195.8467 164.2358 15.21699844977120 SL-3 R/B 1 13068U 82013B 26094.22088038 .00006564 00000+0 28211-3 0 9991 2 13068 81.1722 130.8412 0023503 94.2092 266.1826 15.22258087408237 SL-3 R/B 1 13154U 82039B 26094.29895371 .00004973 00000+0 29996-3 0 9991 2 13154 81.1558 186.4311 0028181 239.1157 120.7296 15.10238166385507 SL-3 R/B 1 13403U 82079B 26094.25691271 .00009388 00000+0 36999-3 0 9997 2 13403 81.1474 162.8869 0025411 80.9789 279.4319 15.25153776381595 SL-14 R/B 1 13553U 82092B 26094.29591218 .00000664 00000+0 71792-4 0 9991 2 13553 82.5650 117.4432 0019449 212.4313 256.1744 14.86691224332730 SL-3 R/B 1 13819U 83010B 26094.11962999 .00024719 00000+0 48192-3 0 9990 2 13819 81.1031 331.0523 0015456 322.3975 37.6188 15.47250003361872 SL-3 R/B 1 14208U 83075B 26094.24437702 .00018264 00000+0 46951-3 0 9996 2 14208 97.6135 99.8014 0022852 134.9214 225.3891 15.39063962334084 COSMOS 1536 1 14699U 84013A 26093.99865409 .00011761 00000+0 47999-3 0 9991 2 14699 82.5420 82.6778 0014027 185.2558 174.8535 15.24199696276479 SL-14 R/B 1 14820U 84027B 26094.28114448 .00000858 00000+0 95203-4 0 9992 2 14820 82.5427 221.0105 0016639 246.8500 113.0964 14.86006611251438 SL-8 R/B 1 15483U 85006B 26093.78580179 .00000485 00000+0 16926-3 0 9998 2 15483 74.0460 214.9674 0017475 125.2686 346.4170 14.37802490157636 SL-12 R/B(2) 1 15772U 85042D 26094.31006355 .00000224 00000+0 12234-3 0 9997 2 15772 71.1100 33.5980 0032833 85.5759 27.2414 14.21990371118030 SL-14 R/B 1 15945U 85069B 26094.25812426 .00000764 00000+0 83440-4 0 9992 2 15945 82.5304 0.8976 0020293 106.3248 254.0202 14.86462769176639 SL-16 R/B 1 16182U 85097B 26094.27158118 -.00000156 00000+0 -54325-4 0 9997 2 16182 71.0009 86.6937 0009205 229.2006 220.7877 14.16602594 90856 SL-14 R/B 1 16496U 86006B 26093.89212687 .00001498 00000+0 15647-3 0 9996 2 16496 82.5261 236.0132 0076278 188.0699 171.9299 14.86861725152958 COSMOS 1743 1 16719U 86034A 26094.24245210 .00070811 00000+0 84023-3 0 9992 2 16719 82.5321 46.9694 0005727 155.5299 204.6231 15.60916209184237 SL-14 R/B 1 16792U 86046B 26094.26733978 .00000808 00000+0 90075-4 0 9995 2 16792 82.4816 56.0094 0024063 140.4609 219.8369 14.85618422130204 SL-14 R/B 1 16882U 86055B 26094.05851374 .00000745 00000+0 83026-4 0 9991 2 16882 82.5169 102.8220 0017421 246.3591 167.3933 14.85667779123130 AJISAI (EGS) 1 16908U 86061A 26094.27821724 -.00000097 00000+0 55912-5 0 9992 2 16908 50.0121 14.6631 0011359 352.9052 189.0277 12.44515625471181 SL-14 R/B 1 17567U 87024B 26094.02210361 .00000817 00000+0 90090-4 0 9990 2 17567 82.5263 68.9474 0018372 171.9283 188.2233 14.86159383 91896 COSMOS 1833 1 17589U 87027A 26094.20305273 -.00000313 00000+0 -14154-3 0 9993 2 17589 70.9164 272.3912 0022979 176.4330 183.6959 14.13044326 13922 SL-16 R/B 1 17590U 87027B 26093.82034850 .00000292 00000+0 16848-3 0 9998 2 17590 71.0024 223.5345 0002871 79.1178 281.0268 14.17168275 18900 SL-14 R/B 1 17912U 87038B 26093.89534027 .00000817 00000+0 91784-4 0 9992 2 17912 82.4977 273.0552 0020748 82.0589 278.2981 14.85395222 82970 COSMOS 1844 1 17973U 87041A 26094.14030599 .00000365 00000+0 21408-3 0 9990 2 17973 70.9016 340.4961 0031493 340.5183 19.4732 14.14561995 7180 SL-14 R/B 1 18153U 87055B 26094.13715619 .00000684 00000+0 75973-4 0 9999 2 18153 82.4995 325.0498 0019206 291.2083 68.7082 14.85656177 73710 COSMOS 1867 1 18187U 87060A 26093.73111755 .00000019 00000+0 44789-4 0 9991 2 18187 65.0101 236.5733 0014935 280.0607 79.8792 14.31507283 23522 SL-14 R/B 1 18749U 88001B 26094.26900117 .00000725 00000+0 80826-4 0 9994 2 18749 82.5156 171.3098 0018864 149.7997 210.4310 14.85557518 45829 COSMOS 1933 1 18958U 88020A 26094.23275078 .00008476 00000+0 41236-3 0 9997 2 18958 82.5141 225.6335 0005434 108.5829 251.5996 15.18249829 54105 SL-3 R/B 1 19046U 88032B 26094.27434523 .00008489 00000+0 39106-3 0 9992 2 19046 97.5224 77.4456 0027007 141.5814 218.7351 15.20212368 55999 SL-16 R/B 1 19120U 88039B 26094.20590348 -.00000059 00000+0 -48376-5 0 9991 2 19120 71.0174 14.5934 0023830 297.9060 61.9652 14.19620771962004 COSMOS 1953 1 19210U 88050A 26094.15345697 .00012696 00000+0 44943-3 0 9995 2 19210 82.5061 132.6283 0011873 42.8589 317.3574 15.28944195 41674 SL-8 R/B 1 19257U 88053B 26094.24923244 .00000335 00000+0 11713-3 0 9995 2 19257 74.0467 65.3478 0021363 241.1605 220.1097 14.38933793980278 COSMOS 1975 1 19573U 88093A 26094.06430815 .00011657 00000+0 41870-3 0 9993 2 19573 82.5159 92.1991 0013375 83.8533 276.4229 15.28444338 23286 SL-14 R/B 1 19574U 88093B 26094.26545392 .00000819 00000+0 91389-4 0 9992 2 19574 82.5345 18.0400 0019591 316.9311 156.1216 14.85689198 4811 SL-16 R/B 1 19650U 88102B 26094.26282083 .00000268 00000+0 15942-3 0 9991 2 19650 70.9971 97.6869 0015387 324.2035 35.8056 14.16155280930512 INTERCOSMOS 24 1 20261U 89080A 26094.22107460 .00000604 00000+0 17784-3 0 9998 2 20261 82.6016 87.7731 1187004 233.5104 115.0865 12.59590610670016 SL-14 R/B 1 20262U 89080C 26094.24143242 .00000539 00000+0 15303-3 0 9991 2 20262 82.5946 156.7903 1230911 126.3748 245.7383 12.50518671663347 DELTA 1 R/B 1 20323U 89089B 26094.14164578 .00000580 00000+0 15181-3 0 9992 2 20323 97.0684 297.5281 0070169 43.0970 317.5693 14.50686065899423 ARIANE 40 R/B 1 20443U 90005H 26094.17763929 .00000451 00000+0 15680-3 0 9994 2 20443 98.3030 154.0729 0011242 125.1090 235.1155 14.39888769896473 DELTA 2 R/B(1) 1 20453U 90008B 26094.20428515 .00105528 00000+0 10992-2 0 9992 2 20453 35.6043 6.9815 0076251 138.8915 221.7600 15.59608478930117 COSMOS 2058 1 20465U 90010A 26094.26907904 .00007885 00000+0 46271-3 0 9995 2 20465 82.4727 22.2249 0008008 239.4213 120.6228 15.11584207946105 SL-14 R/B 1 20466U 90010B 26093.91175734 .00000852 00000+0 10026-3 0 9991 2 20466 82.5006 243.6908 0018984 213.2555 146.7469 14.83595821932227 SL-14 R/B 1 20511U 90018B 26094.29131273 .00000711 00000+0 86165-4 0 9994 2 20511 82.5242 199.1663 0016430 12.9130 347.2501 14.82172383926377 HST 1 20580U 90037B 26093.66929401 .00012406 00000+0 40809-3 0 9997 2 20580 28.4724 229.5454 0002132 51.9469 308.1319 15.29899616777144 SL-16 R/B 1 20625U 90046B 26094.14622494 .00000044 00000+0 47557-4 0 9996 2 20625 70.9987 244.4455 0016550 266.6066 93.3163 14.15019283851995 COSMOS 2084 1 20663U 90055A 26094.15748957 .00005283 00000+0 37541-3 0 9993 2 20663 62.7896 248.7034 0012991 198.8360 161.2261 15.05811854940158 SL-6 R/B(2) 1 20666U 90055D 26094.17511627 .00003367 00000+0 25662-3 0 9992 2 20666 62.7828 167.1758 0028975 352.7118 7.3556 15.03726066942027 SL-8 R/B 1 20775U 90078B 26094.30501172 .00019039 00000+0 56410-3 0 9995 2 20775 82.9045 228.2567 0357478 287.5485 68.6979 14.89834713813113 SL-8 R/B 1 21088U 91006B 26094.26642028 .00000131 00000+0 11668-3 0 9995 2 21088 82.9435 151.0296 0021456 326.6148 101.4186 13.77498663767593 OKEAN-3 1 21397U 91039A 26094.07900911 .00005678 00000+0 39806-3 0 9996 2 21397 82.5148 312.2412 0012803 243.0253 116.9666 15.04965020868852 COSMOS 2151 1 21422U 91042A 26094.22993784 .00004086 00000+0 32423-3 0 9996 2 21422 82.4960 59.0320 0011749 341.9423 18.1382 15.00225779867023 SL-14 R/B 1 21423U 91042B 26094.28229169 .00000730 00000+0 89226-4 0 9998 2 21423 82.4960 196.1899 0017746 152.7768 207.4381 14.81857651856861 ERS-1 1 21574U 91050A 26094.06868760 .00000550 00000+0 19020-3 0 9990 2 21574 98.7859 112.9393 0032919 125.9575 234.4673 14.39470557819386 ARIANE 40 R/B 1 21610U 91050F 26094.12861387 .00000526 00000+0 16996-3 0 9998 2 21610 98.1959 145.4038 0003170 21.9524 338.1802 14.42913846822663 INTERCOSMOS 25 1 21819U 91086A 26094.08155365 .00002725 00000+0 52880-3 0 9990 2 21819 82.5999 294.6558 1486317 62.2249 312.1518 12.12092405499761 SL-8 R/B 1 21876U 92008B 26094.19535862 .00000019 00000+0 33212-5 0 9998 2 21876 82.9242 248.8002 0035797 64.5745 108.4023 13.75969837712926 SL-8 R/B 1 21938U 92020B 26094.22539560 .00000022 00000+0 76947-5 0 9990 2 21938 82.9292 134.8003 0028039 224.3113 205.3115 13.75550683704645 USA 81 1 21949U 92023A 26094.15679951 .00000248 00000+0 84394-4 0 9990 2 21949 85.0039 116.7425 0001524 70.1120 290.0236 14.32376841 98436 COSMOS 2219 1 22219U 92076A 26094.05744027 -.00000152 00000+0 -55014-4 0 9998 2 22219 71.0607 325.0424 0017673 168.6406 191.5119 14.14088953721969 SL-16 R/B 1 22220U 92076B 26094.25599274 -.00000121 00000+0 -36653-4 0 9998 2 22220 70.9984 134.5222 0010919 49.3707 23.7843 14.16862686725454 COSMOS 2221 1 22236U 92080A 26094.18378497 .00004090 00000+0 35869-3 0 9998 2 22236 82.5013 254.6522 0015700 105.8399 254.4555 14.96320068784604 SL-16 R/B 1 22285U 92093B 26094.03936183 -.00000042 00000+0 30465-5 0 9995 2 22285 71.0220 311.0524 0006646 269.4467 90.5894 14.15456262716745 COSMOS 2228 1 22286U 92094A 26094.24989276 .00004657 00000+0 39796-3 0 9990 2 22286 82.5200 212.8379 0017222 211.8550 148.1632 14.97336380779885 SL-16 R/B 1 22566U 93016B 26094.29437276 .00000351 00000+0 20448-3 0 9990 2 22566 71.0073 161.4078 0012388 281.3715 78.6016 14.15308631705795 COSMOS 2242 1 22626U 93024A 26093.90891592 .00004049 00000+0 35195-3 0 9991 2 22626 82.5174 242.5872 0015497 216.6596 143.3568 14.96671287784165 SL-16 R/B 1 22803U 93059B 26093.95669856 .00000086 00000+0 66081-4 0 9993 2 22803 70.9906 317.8462 0017084 179.1684 180.9472 14.17234867683118 ARIANE 40 R/B 1 22830U 93061H 26094.18660452 .00000340 00000+0 14028-3 0 9991 2 22830 98.4870 162.5652 0010353 202.6778 157.3950 14.32875666697756 COSMOS 2278 1 23087U 94023A 26094.27040193 .00000013 00000+0 31540-4 0 9995 2 23087 71.0505 121.5800 0009339 335.5362 24.5316 14.14374933648422 SL-16 R/B 1 23088U 94023B 26094.23465655 .00000184 00000+0 11946-3 0 9992 2 23088 71.0031 17.2394 0005588 263.3895 96.6591 14.15019614649707 SL-16 R/B 1 23343U 94074B 26094.08892075 .00000820 00000+0 11642-3 0 9995 2 23343 97.7070 123.8739 0007684 130.6619 289.9702 14.79439412691008 SL-16 R/B 1 23405U 94077B 26093.99429817 -.00000191 00000+0 -72958-4 0 9997 2 23405 70.9821 299.2542 0001604 190.0745 170.0346 14.15568198619817 ARIANE 40+ R/B 1 23561U 95021B 26094.18123538 .00000474 00000+0 16486-3 0 9998 2 23561 98.4453 165.3128 0007834 70.9108 343.4137 14.39792168622910 SL-16 R/B 1 23705U 95058B 26094.28519929 -.00000041 00000+0 33533-5 0 9997 2 23705 71.0191 126.5202 0010299 78.8463 281.3818 14.15497841571472 SL-16 R/B 1 24298U 96051B 26094.23664594 .00000131 00000+0 97419-4 0 9994 2 24298 70.7581 121.1671 0013102 106.0632 254.1932 14.12423468525259 ORBVIEW 2 (SEASTAR) 1 24883U 97037A 26094.20748543 .00000444 00000+0 17044-3 0 9995 2 24883 98.8611 259.2014 0002077 14.3141 345.8103 14.35514238512135 SL-16 R/B 1 25400U 98043G 26094.27099856 .00000107 00000+0 63826-4 0 9998 2 25400 98.8298 47.8227 0008960 304.2390 55.7940 14.26056094442637 SL-16 R/B 1 25407U 98045B 26094.28355520 .00000083 00000+0 65946-4 0 9999 2 25407 71.0090 127.7530 0008226 330.5545 29.5114 14.16193545430722 ISS (ZARYA) 1 25544U 98067A 26094.06925453 .00011847 00000+0 22464-3 0 9996 2 25544 51.6326 306.8840 0006251 269.7954 90.2318 15.48758130560264 CZ-4B R/B 1 25732U 99025C 26094.13371256 .00000086 00000+0 62560-4 0 9999 2 25732 98.6573 137.8064 0035977 271.6847 151.1591 14.18270738391775 OKEAN-O 1 25860U 99039A 26094.13432624 .00001168 00000+0 15983-3 0 9991 2 25860 97.9389 153.7604 0000924 103.2505 256.8810 14.80379840438150 SL-16 R/B 1 25861U 99039B 26094.15782914 .00001019 00000+0 13580-3 0 9990 2 25861 97.9912 153.2095 0015050 169.6846 190.4678 14.81769655440631 DELTA 2 R/B 1 25876U 99041E 26094.28028046 .00000993 00000+0 19920-3 0 9996 2 25876 51.7610 199.0514 0502625 63.8946 301.2810 14.11898885366648 HELIOS 1B 1 25977U 99064A 26094.27136102 .00003539 00000+0 39374-3 0 9999 2 25977 98.1669 357.2640 0001498 44.1939 315.9396 14.87806043689066 TERRA 1 25994U 99068A 26094.26120273 .00000777 00000+0 16741-3 0 9997 2 25994 97.9539 146.7122 0003671 99.1126 325.8657 14.61044406398816 SL-16 R/B 1 26070U 00006B 26094.23499230 .00000115 00000+0 82879-4 0 9998 2 26070 71.0039 44.1205 0015238 149.7346 210.4661 14.15831083352178 TITAN 4B R/B 1 26474U 00047B 26094.20382510 .00005857 00000+0 36271-3 0 9992 2 26474 67.9903 328.7553 0040348 5.5420 354.6167 15.09807059396764 ENVISAT 1 27386U 02009A 26094.28960774 .00000206 00000+0 80455-4 0 9994 2 27386 98.3771 47.2842 0001179 82.2846 85.8357 14.39046564262859 IDEFIX & ARIANE 42P R/B 1 27422U 02021B 26094.22624895 .00000459 00000+0 19075-3 0 9993 2 27422 98.5899 32.5319 0012862 110.0594 250.1975 14.31044908247678 AQUA 1 27424U 02022A 26094.21168007 .00001687 00000+0 34606-3 0 9994 2 27424 98.4218 62.0500 0001395 115.5772 301.1356 14.62040526272462 CZ-4B R/B 1 27432U 02024C 26094.18417244 .00000078 00000+0 63494-4 0 9992 2 27432 98.8782 147.4560 0049260 311.3970 115.8052 14.14552522232846 MIDORI II (ADEOS-II) 1 27597U 02056A 26094.28525966 .00000502 00000+0 21490-3 0 9992 2 27597 98.7815 52.9471 0000402 21.1810 338.9388 14.29306166213957 H-2A R/B 1 27601U 02056E 26093.96610419 .00000549 00000+0 20626-3 0 9991 2 27601 98.3248 53.3763 0071422 86.3216 314.4590 14.33779897217735 CZ-4B R/B 1 28059U 03049C 26094.24007148 .00000584 00000+0 14506-3 0 9992 2 28059 98.6898 90.1516 0048672 152.5223 207.8562 14.55044855190318 CZ-2C R/B 1 28222U 04012C 26094.16766776 .00092548 00000+0 83231-3 0 9997 2 28222 97.7167 161.9274 0013669 209.9173 150.1308 15.67822656208265 SL-16 R/B 1 28353U 04021B 26094.26713521 .00000392 00000+0 22885-3 0 9997 2 28353 71.0013 178.8182 0005399 337.7154 22.3733 14.14599793126456 CZ-4B R/B 1 28415U 04035C 26094.10057608 .00015142 00000+0 52377-3 0 9999 2 28415 97.3449 128.0403 0030281 236.4102 123.4247 15.29539324183792 CZ-2C R/B 1 28480U 04046B 26094.21891237 .00000279 00000+0 11819-3 0 9990 2 28480 98.1976 7.6121 0140634 79.4714 282.2277 14.27002608112140 ARIANE 5 R/B 1 28499U 04049H 26094.03016544 .00001512 00000+0 17273-3 0 9994 2 28499 98.2664 263.4426 0082815 268.9464 90.2261 14.85317938149552 CZ-2D R/B 1 28738U 05024B 26094.02537417 .00075160 00000+0 83606-3 0 9993 2 28738 97.3569 110.1424 0001832 282.0068 78.0984 15.62633125143730 ALOS (DAICHI) 1 28931U 06002A 26093.89492224 .00002578 00000+0 43922-3 0 9995 2 28931 98.1261 49.7320 0001107 115.1518 244.9803 14.69893925 77187 H-2A R/B 1 28932U 06002B 26094.00919672 .00018444 00000+0 90236-3 0 9990 2 28932 98.2464 243.2285 0052465 154.6510 205.7312 15.17034066 98278 RESURS-DK 1 1 29228U 06021A 26094.25626491 .00004401 00000+0 25535-3 0 9999 2 29228 69.9333 170.8865 0001949 35.2722 324.8572 15.12909449 91394 CZ-4B R/B 1 29507U 06046C 26094.13581307 .00009794 00000+0 48931-3 0 9994 2 29507 97.5536 138.9735 0033290 176.7207 183.4251 15.17184348 63907 CZ-2C R/B 1 31114U 07010B 26094.29933505 .00000227 00000+0 12362-3 0 9992 2 31114 98.4006 206.2979 0058346 218.8344 140.8634 14.20256381983356 COSMO-SKYMED 1 1 31598U 07023A 26094.27110876 .00006832 00000+0 60265-3 0 9991 2 31598 97.8869 285.5122 0001576 99.6691 260.4708 14.96737166 18735 COSMOS 2428 1 31792U 07029A 26094.23329424 -.00000005 00000+0 23011-4 0 9996 2 31792 70.9423 149.7324 0009698 250.5460 109.4613 14.12949003967709 SL-16 R/B 1 31793U 07029B 26094.30203590 -.00000097 00000+0 -25566-4 0 9999 2 31793 70.9739 118.5468 0002901 276.7049 161.7644 14.14843963968993 KORONAS-FOTON 1 33504U 09003A 26094.17506736 .00022871 00000+0 49807-3 0 9993 2 33504 82.4286 249.3643 0011446 66.8292 293.4160 15.44071314949677 CZ-2C R/B 1 37731U 11030B 26093.87524654 .00002507 00000+0 32107-3 0 9996 2 37731 97.8589 50.6430 0050925 268.4412 148.7353 14.81315501793824 H-2A R/B 1 38341U 12025E 26093.89005147 .00004781 00000+0 43151-3 0 9999 2 38341 98.4773 62.9643 0043226 229.4419 130.3033 14.95351172751988 SHIJIAN-16 (SJ-16) 1 39358U 13057A 26094.30403951 .00001312 00000+0 13058-3 0 9996 2 39358 74.9712 136.5979 0015351 46.0808 314.1645 14.92440255675324 SL-4 R/B 1 39679U 14021B 26093.74841385 .00025560 00000+0 54336-3 0 9993 2 39679 51.6063 214.9494 0094520 194.4221 165.4063 15.40122549660137 ALOS-2 1 39766U 14029A 26094.28401352 -.00000095 00000+0 -57834-5 0 9990 2 39766 97.9197 192.5087 0001926 98.8518 261.2912 14.79450486640656 YAOGAN-29 1 41038U 15069A 26094.29871035 .00001274 00000+0 16338-3 0 9990 2 41038 98.0101 122.7928 0000079 182.4683 177.6530 14.83026192559673 ASTRO-H (HITOMI) 1 41337U 16012A 26093.61956448 .00004921 00000+0 28817-3 0 9995 2 41337 30.9990 195.6484 0009679 222.5414 137.4474 15.10171847556009 HXMT (HUIYAN) 1 42758U 17034A 26094.24836931 .00011732 00000+0 57337-3 0 9999 2 42758 43.0139 234.5401 0030984 34.3812 325.9034 15.17813161486426 SAOCOM 1A 1 43641U 18076A 26094.27949704 .00000205 00000+0 32364-4 0 9991 2 43641 97.8897 282.0911 0001386 87.2189 272.9183 14.82148331405156 H-2A R/B 1 43682U 18084L 26094.17200654 .00033498 00000+0 76545-3 0 9996 2 43682 98.8683 317.0251 0023090 294.8344 65.0498 15.42508421409708 SAOCOM 1B 1 46265U 20059A 26094.24323578 .00000202 00000+0 31902-4 0 9996 2 46265 97.8883 281.1519 0001450 82.8737 277.2641 14.82148741302532 CSS (TIANHE) 1 48274U 21035A 26094.17363873 .00032464 00000+0 36374-3 0 9999 2 48274 41.4678 52.9483 0003770 120.6138 239.5073 15.61988078281593 COSMOS 2550 1 48865U 21056A 26094.40472941 .00002815 00000+0 91326-4 0 9997 2 48865 67.1431 323.0974 0008431 269.6767 90.3422 15.33837300267404 CZ-2C R/B 1 52794U 22058K 26094.27777953 .00056284 00000+0 75594-3 0 9999 2 52794 50.1866 186.4747 0041147 310.7638 48.9764 15.56303456214112 CZ-2C R/B 1 54039U 22132E 26093.91613457 .00077695 00000+0 80299-3 0 9991 2 54039 97.2951 98.0438 0015969 6.7107 353.4363 15.64349220194310 GSLV R/B 1 54149U 22138AN 26094.19136234 .00005330 00000+0 45899-3 0 9997 2 54149 87.3848 157.8236 0023706 62.7996 297.5648 14.96946837187747 XRISM 1 57800U 23137A 26094.12843745 .00009491 00000+0 53588-3 0 9995 2 57800 31.0011 119.0851 0007836 294.3915 65.5905 15.11816843141644 ACS3 1 59588U 24077B 26094.26433441 .00034530 00000+0 26894-1 0 9997 2 59588 97.1950 29.6290 0073398 18.9723 341.4151 13.90880919 97751 HTV-X1 1 66174U 25241A 26094.21324593 .00008792 00000+0 28691-3 0 9992 2 66174 51.6358 310.0349 0007310 271.2377 88.7767 15.32530492 24850 SZ-21 MODULE 1 66515U 25246C 26094.27025469 .00061134 00000+0 47837-3 0 9994 2 66515 41.4750 45.6530 0003225 227.1909 132.8663 15.70682632 22093